[[{"header":{"parameterUnit":"m.s-1","parameterCategory":1,"la1":30.2991,"la2":30.254,"lo1":-89.0895,"lo2":-89.0444,"dy":0.0017,"dx":0.0017,"nx":28,"ny":28,"refTime":"2024-03-06T03:00:00:Z","depth":0,"parameterNumber":2,"parameterNumberName":"U-component_of_WINDS"},"data":[0,0,0,0,0,0,0,0,0,0,0,0,0,0,0,0,0,0,0,0,0,0,0,0,0,0,0,0,0,0,0,0,0,0,0,0,0,0,0,0,0,0,0,0,0,0,0,0,0,0,0,0,0,0,0,0,0,0,0.9113,0.9114,0,0.9149,0.915,0.915,0.9136,0.9135,0.9134,0.9133,0.917,0.9172,0.9174,0,0,0,0,0,0,0,0,0,0,0,0,0,0.9034,0.9035,0.9113,0.9114,0.9114,0.9149,0.915,0.915,0.9136,0.9135,0.9134,0.9133,0.917,0.9172,0.9174,0,0,0,0,0,0,0,0,0,0,0,0,0,0.9069,0.9036,0.9113,0.9111,0.9112,0.9149,0.915,0.915,0.9136,0.9135,0.9134,0.9132,0.9169,0.9171,0.9174,0.9216,0,0,0.9182,0.9183,0,0,0,0,0,0,0,0,0.9067,0.9072,0.9111,0.9112,0.9112,0.9137,0.9135,0.9172,0.9136,0.9127,0.9133,0.9132,0.916,0.9163,0.9173,0.9217,0.9219,0.9182,0.9184,0.9185,0.9186,0,0,0,0,0,0,0,0.9064,0.907,0.9127,0.9112,0.9112,0.9109,0.9113,0.9142,0.915,0.9127,0.9127,0.9131,0.916,0.917,0.9174,0.922,0.9182,0.9185,0.9186,0.9187,0.9302,0.9303,0,0,0,0,0,0,0.9062,0.9068,0.9126,0.9129,0.9086,0.9111,0.9115,0.913,0.915,0.9151,0.9132,0.913,0.9166,0.9171,0.9175,0.9226,0.9185,0.9188,0.9189,0.93,0.9302,0.9303,0,0,0,0,0,0,0.906,0.9067,0.9125,0.9098,0.9105,0.9114,0.9131,0.9131,0.9142,0.9153,0.9154,0.9141,0.9166,0.9171,0.9206,0.9227,0.9189,0.9191,0.9298,0.9301,0.9303,0.9328,0,0,0,0,0,0,0.9058,0.9066,0.9082,0.9099,0.9107,0.9155,0.9132,0.9133,0.9146,0.9144,0.9162,0.9164,0.9165,0.9202,0.9209,0.923,0.9193,0.9297,0.9299,0.9302,0.9325,0.9331,0.9335,0,0,0,0,0,0.9055,0.9087,0.9083,0.909,0.9126,0.9156,0.9161,0.9162,0.9148,0.9164,0.9172,0.9163,0.9224,0.9206,0.9213,0.9235,0.9295,0.9299,0.9302,0.9323,0.933,0.9335,0,0,0,0,0,0,0.9073,0.909,0.9085,0.9123,0.9139,0.9154,0.9174,0.9169,0.9188,0.9185,0.9186,0.919,0.9226,0.9234,0.9214,0.9278,0.9257,0.9262,0.9271,0.9277,0.9282,0.928,0.9195,0,0,0,0,0,0.9082,0.9104,0.9118,0.9151,0.9158,0.9165,0.9178,0.9178,0.9193,0.92,0.921,0.9226,0.9248,0.9263,0.9284,0.9326,0.9331,0.9345,0.935,0.9354,0.9359,0.9383,0.939,0.9314,0.9314,0.9314,0,0,0.9099,0.9111,0.9126,0.9155,0.9166,0.919,0.9171,0.9197,0.9215,0.9204,0.9238,0.9245,0.9263,0.9302,0.932,0.931,0.9381,0.9359,0.9362,0.9364,0.9387,0.9394,0.9401,0.9316,0.9316,0.9316,0,0,0.9144,0.9155,0.9184,0.9197,0.9215,0.9219,0.9226,0.9243,0.9248,0.9282,0.9274,0.9296,0.9335,0.9348,0.936,0.9411,0.9405,0.9418,0.9445,0.9468,0.9474,0.9479,0.9499,0.9506,0.9422,0.9422,0.9422,0,0.9164,0.92,0.92,0.9227,0.9241,0.9232,0.9262,0.9274,0.9298,0.9308,0.9297,0.9346,0.9357,0.94,0.9412,0.9422,0.9431,0.9416,0.9473,0.9478,0.9483,0.9502,0.9509,0.9424,0.9424,0.9424,0.9423,0,0.9224,0.9249,0.9271,0.9295,0.9311,0.9339,0.9344,0.936,0.9358,0.9364,0.9399,0.9413,0.9437,0.9447,0.9445,0.949,0.9484,0.9473,0.9453,0.9492,0.951,0.9517,0.9426,0.9426,0.9425,0.9425,0,0,0.9282,0.9306,0.9314,0.9325,0.9345,0.9365,0.9393,0.9417,0.9432,0.9449,0.9473,0.9507,0.9497,0.9511,0.9511,0.9531,0.9572,0.9518,0.9518,0.9528,0.9624,0.9632,0.9641,0.9568,0.9569,0.957,0.9623,0,0.9329,0.9379,0.938,0.9426,0.945,0.9443,0.9468,0.9483,0.9489,0.951,0.9517,0.9542,0.9527,0.9535,0.9555,0.9563,0.9592,0.9559,0.9592,0.9593,0.9588,0.965,0.9659,0.9707,0.9629,0.963,0.9631,0,0.9391,0.9411,0.9459,0.9477,0.9487,0.9509,0.9532,0.9552,0.957,0.9573,0.9589,0.9586,0.9616,0.9594,0.9636,0.9614,0.9627,0.9633,0.9635,0.9639,0.9615,0.9656,0.9723,0.9731,0.9642,0.9641,0.964,0,0.943,0.9468,0.9502,0.9512,0.9533,0.9549,0.9559,0.9575,0.959,0.961,0.9619,0.9643,0.9656,0.9674,0.9678,0.9661,0.972,0.9698,0.9724,0.9724,0.9738,0.9737,0.9809,0.9745,0.9744,0.9744,0.9744,0,0.9483,0.9513,0.952,0.9541,0.9575,0.9577,0.961,0.9619,0.9633,0.9656,0.9651,0.9673,0.9676,0.9699,0.9702,0.9737,0.9743,0.9747,0.9747,0.9748,0.9747,0.9757,0.9754,0.9746,0.9746,0.9745,0.9745,0,0.9532,0.9538,0.9575,0.9592,0.9597,0.9621,0.9636,0.9657,0.9662,0.9692,0.9699,0.9708,0.9735,0.9741,0.9772,0.9774,0.9816,0.9813,0.9811,0.9811,0.9837,0.9835,0.9918,0.9929,0.9857,0.9857,0.9858,0,0.9566,0.9589,0.9609,0.9624,0.9635,0.9659,0.9674,0.9677,0.9693,0.9715,0.9734,0.976,0.9781,0.9824,0.9834,0.9859,0.9857,0.9884,0.986,0.9861,0.9859,0.9858,0.9861,0.9889,0.989,0.989,0.9891,0,0.9627,0.9629,0.9651,0.9675,0.9693,0.9712,0.9729,0.9742,0.9747,0.9766,0.9793,0.981,0.9842,0.9869,0.9894,0.9904,0.9899,0.9898,0.9906,0.9907,0.9905,0.9908,0.9824,0.9897,0.9896,0.9896,0.9895,0.9895,0.967,0.9691,0.9708,0.9734,0.9747,0.9764,0.9785,0.9794,0.9817,0.9843,0.9843,0.9874,0.9892,0.9924,0.9936,0.996,0.9952,0.9962,0.9965,0.9968,0.9971,0.9901,0.9965,0.9965,0.9964,0.9964,0.9964,0,0.9732,0.9743,0.9766,0.9791,0.9811,0.9804,0.9824,0.9841,0.9868,0.9885,0.9906,0.9938,0.9964,0.9977,1.0003,1.002,1.0018,1.0027,1.0026,1.0029,0.9977,0.9968,1.0028,1.0028,1.0027,1.0027,1.0027,1.0027,0.9766,0.9801,0.9805,0.9848,0.9858,0.9888,0.99,0.9916,0.993,0.9966,0.9988,0.9995,1.0011,1.0038,1.0062,1.0065,1.0075,1.0085,1.0087,1.0038,1.0032,1.0026,1.0018,1.0087,1.0087,1.0137,1.0137,1.0138]},{"header":{"parameterUnit":"m.s-1","parameterCategory":1,"la1":30.2991,"la2":30.254,"lo1":-89.0895,"lo2":-89.0444,"dy":0.0017,"dx":0.0017,"nx":28,"ny":28,"refTime":"2024-03-06T03:00:00:Z","depth":0,"parameterNumber":3,"parameterNumberName":"V-component_of_WINDS"},"data":[0,0,0,0,0,0,0,0,0,0,0,0,0,0,0,0,0,0,0,0,0,0,0,0,0,0,0,0,0,0,0,0,0,0,0,0,0,0,0,0,0,0,0,0,0,0,0,0,0,0,0,0,0,0,0,0,0,0,-1.9487,-1.9488,0,-1.9556,-1.9557,-1.9558,-1.9575,-1.9574,-1.9574,-1.9573,-1.9642,-1.9644,-1.9646,0,0,0,0,0,0,0,0,0,0,0,0,0,-1.9369,-1.9371,-1.9487,-1.9488,-1.9489,-1.9556,-1.9557,-1.9558,-1.9575,-1.9574,-1.9574,-1.9573,-1.9641,-1.9644,-1.9646,0,0,0,0,0,0,0,0,0,0,0,0,0,-1.9427,-1.9372,-1.9487,-1.9505,-1.9508,-1.9556,-1.9557,-1.9558,-1.9575,-1.9574,-1.9573,-1.9573,-1.964,-1.9643,-1.9647,-1.9681,0,0,-1.9657,-1.9658,0,0,0,0,0,0,0,0,-1.9424,-1.9432,-1.9502,-1.9504,-1.9507,-1.9556,-1.954,-1.9599,-1.9575,-1.9549,-1.9573,-1.9572,-1.9614,-1.9619,-1.9633,-1.9684,-1.9687,-1.9657,-1.9659,-1.9661,-1.9662,0,0,0,0,0,0,0,-1.942,-1.9429,-1.9514,-1.9503,-1.9506,-1.951,-1.9517,-1.9552,-1.9584,-1.9551,-1.9553,-1.9561,-1.9615,-1.963,-1.9635,-1.9688,-1.9657,-1.966,-1.9662,-1.9664,-1.977,-1.9771,0,0,0,0,0,0,-1.9413,-1.9425,-1.9512,-1.9516,-1.9463,-1.9513,-1.9521,-1.9541,-1.9584,-1.959,-1.9561,-1.9561,-1.9625,-1.9631,-1.9638,-1.9681,-1.9661,-1.9664,-1.9666,-1.9769,-1.977,-1.9771,0,0,0,0,0,0,-1.9411,-1.9421,-1.9509,-1.9471,-1.9483,-1.9515,-1.9538,-1.9543,-1.9558,-1.9591,-1.9597,-1.9571,-1.9625,-1.9633,-1.967,-1.9683,-1.9665,-1.9668,-1.9768,-1.977,-1.9771,-1.9766,0,0,0,0,0,0,-1.9407,-1.942,-1.9433,-1.9472,-1.9485,-1.9541,-1.9538,-1.9544,-1.9564,-1.9565,-1.9602,-1.9608,-1.9625,-1.9665,-1.9673,-1.9687,-1.9671,-1.9767,-1.9769,-1.977,-1.9765,-1.9767,-1.9769,0,0,0,0,0,-1.9403,-1.9429,-1.9434,-1.9444,-1.9503,-1.9542,-1.9549,-1.9569,-1.9565,-1.9578,-1.96,-1.9606,-1.968,-1.9669,-1.9678,-1.9693,-1.9767,-1.9768,-1.977,-1.9765,-1.9767,-1.9769,0,0,0,0,0,0,-1.939,-1.9434,-1.944,-1.9479,-1.9507,-1.9545,-1.9562,-1.9571,-1.9599,-1.9599,-1.9621,-1.963,-1.9665,-1.9683,-1.9669,-1.9729,-1.9723,-1.9727,-1.9716,-1.9718,-1.972,-1.9715,-1.9674,0,0,0,0,0,-1.9392,-1.942,-1.9457,-1.9488,-1.9502,-1.953,-1.9547,-1.956,-1.9589,-1.9601,-1.9625,-1.9653,-1.9682,-1.9701,-1.973,-1.9768,-1.9777,-1.9783,-1.9785,-1.9786,-1.9789,-1.9811,-1.9814,-1.9777,-1.9777,-1.9777,0,0,-1.9395,-1.9423,-1.944,-1.9486,-1.9509,-1.9538,-1.9539,-1.9569,-1.9591,-1.9605,-1.9642,-1.9661,-1.9693,-1.9731,-1.9749,-1.9747,-1.9801,-1.9789,-1.9789,-1.9792,-1.9813,-1.9816,-1.982,-1.9778,-1.9778,-1.9778,0,0,-1.9417,-1.9441,-1.947,-1.9493,-1.9528,-1.9546,-1.9553,-1.959,-1.9603,-1.9641,-1.9652,-1.9678,-1.9728,-1.9751,-1.9769,-1.9801,-1.9807,-1.9809,-1.9818,-1.9839,-1.9842,-1.9844,-1.9855,-1.9859,-1.9812,-1.9812,-1.9812,0,-1.9417,-1.9462,-1.9483,-1.9513,-1.9533,-1.9549,-1.9578,-1.9599,-1.9641,-1.9654,-1.9652,-1.9716,-1.9739,-1.9782,-1.979,-1.9804,-1.9813,-1.9805,-1.984,-1.9842,-1.9845,-1.9856,-1.986,-1.9812,-1.9812,-1.9812,-1.9812,0,-1.946,-1.9491,-1.951,-1.9551,-1.9573,-1.9603,-1.9628,-1.9648,-1.9659,-1.9678,-1.9716,-1.9744,-1.9779,-1.9791,-1.9801,-1.9836,-1.9834,-1.9835,-1.983,-1.9848,-1.9859,-1.9863,-1.9812,-1.9812,-1.9812,-1.9812,0,0,-1.9475,-1.9528,-1.9535,-1.9554,-1.9594,-1.9618,-1.9648,-1.9683,-1.97,-1.9729,-1.9754,-1.9797,-1.9799,-1.982,-1.9833,-1.9852,-1.9875,-1.9851,-1.9852,-1.9854,-1.9914,-1.9913,-1.9917,-1.988,-1.9881,-1.9881,-1.9912,0,-1.9501,-1.9556,-1.9577,-1.9621,-1.965,-1.9665,-1.9692,-1.9719,-1.9737,-1.9764,-1.9784,-1.9814,-1.9814,-1.9827,-1.9846,-1.9868,-1.9887,-1.9866,-1.9903,-1.9905,-1.9895,-1.9923,-1.9921,-1.9948,-1.9916,-1.9917,-1.9917,0,-1.9539,-1.957,-1.9617,-1.9654,-1.9667,-1.969,-1.9725,-1.975,-1.9781,-1.9794,-1.9817,-1.983,-1.9862,-1.9855,-1.9899,-1.9884,-1.9901,-1.9914,-1.9916,-1.992,-1.9912,-1.9927,-1.9958,-1.9962,-1.9924,-1.9923,-1.9923,0,-1.9545,-1.9598,-1.9633,-1.9649,-1.9693,-1.9709,-1.9728,-1.9759,-1.9779,-1.9809,-1.9822,-1.9855,-1.9873,-1.9898,-1.9919,-1.9912,-1.9961,-1.9956,-1.9972,-1.9972,-1.9981,-1.998,-2.0014,-1.9992,-1.9992,-1.9992,-1.9992,0,-1.9572,-1.9601,-1.9637,-1.9658,-1.9691,-1.9714,-1.9746,-1.9766,-1.9793,-1.9819,-1.9834,-1.9858,-1.9884,-1.9912,-1.9928,-1.9962,-1.997,-1.9981,-1.9985,-1.9979,-1.9978,-1.999,-1.9989,-1.9993,-1.9993,-1.9993,-1.9993,0,-1.9584,-1.9609,-1.9649,-1.9688,-1.9698,-1.9721,-1.9754,-1.9775,-1.9795,-1.9827,-1.9836,-1.9867,-1.99,-1.9924,-1.9966,-1.9977,-2.0014,-2.0018,-2.0003,-2.0005,-2.0019,-2.0018,-2.0062,-2.0069,-2.0043,-2.0043,-2.0043,0,-1.96,-1.9622,-1.9664,-1.9683,-1.9702,-1.9732,-1.9753,-1.9776,-1.9797,-1.9835,-1.9852,-1.9886,-1.9915,-1.9967,-1.9992,-2.0025,-2.003,-2.0043,-2.0035,-2.0028,-2.003,-2.0028,-2.0031,-2.0044,-2.0044,-2.0044,-2.0045,0,-1.9625,-1.9636,-1.9666,-1.97,-1.9725,-1.9753,-1.9781,-1.9795,-1.9824,-1.9847,-1.9881,-1.9903,-1.9947,-1.998,-2.0016,-2.0035,-2.0045,-2.0047,-2.0053,-2.0047,-2.0038,-2.0043,-2.0006,-2.0046,-2.0046,-2.0046,-2.0046,-2.0046,-1.9639,-1.966,-1.9693,-1.9725,-1.9749,-1.9775,-1.9798,-1.9821,-1.985,-1.9888,-1.99,-1.9935,-1.9966,-2.0015,-2.0035,-2.0062,-2.0062,-2.007,-2.0072,-2.0073,-2.0073,-2.0034,-2.0069,-2.0069,-2.0069,-2.0069,-2.0069,0,-1.9665,-1.9687,-1.9717,-1.9756,-1.9782,-1.979,-1.9821,-1.9842,-1.9873,-1.9902,-1.993,-1.9969,-2.0002,-2.0031,-2.0065,-2.0082,-2.0087,-2.009,-2.0089,-2.0093,-2.0071,-2.0063,-2.0085,-2.0085,-2.0085,-2.0085,-2.0085,-2.0085,-1.9681,-1.9717,-1.9733,-1.978,-1.9802,-1.9838,-1.9855,-1.9879,-1.9902,-1.9946,-1.9974,-1.9992,-2.0021,-2.0057,-2.0088,-2.0096,-2.0107,-2.0109,-2.0118,-2.0097,-2.0095,-2.0093,-2.0085,-2.0112,-2.0112,-2.0137,-2.0138,-2.0138]}]]